Regional Weather Roundup
Issued by NWS

Current Version | Previous Version | Text Only | Print | Product List | Glossary On
Versions: 1 2 3 4 5 6 7 8 9 10 11 12 13 14 15 16 17 18 19 20 21 22 23 24 25 26 27 28 29 30 31 32 33 34 35 36 37 38 39 40 41 42 43 44 45 46 47 48 49 50
793
ASUS42 KTBW 172316
RWRFL
FLORIDA REGIONAL WEATHER ROUNDUP
NATIONAL WEATHER SERVICE TAMPA BAY RUSKIN FL
700 PM EDT MON MAY 17 2021

NOTE: "FAIR" INDICATES FEW OR NO CLOUDS BELOW 12,000 FEET WITH NO
SIGNIFICANT WEATHER AND/OR OBSTRUCTIONS TO VISIBILITY.

FLZ001>010-012>015-112-114-115-180000-
PANHANDLE FLORIDA

CITY           SKY/WX    TMP DP  RH WIND       PRES   REMARKS
PENSACOLA      FAIR      76  65  68 SE12      30.07F
PENSACOLA NAS  PTSUNNY   75  65  70 SE13      30.07S
MILTON NAS     FAIR      78  59  51 S12       30.08S
CRESTVIEW      FAIR      80  62  54 S10       30.09S
DUKE FIELD     FAIR      77  61  58 S10       30.07F
VALPARAISO     FAIR      77  64  63 SE12      30.07F
MARY ESTHER    MOSUNNY   77  65  64 S14       30.07F
PANAMA CITY    FAIR      78  62  57 S15G22    30.08S
TYNDALL AFB    FAIR      80  57  45 SE15G23   30.08S
APALACHICOLA   FAIR      77  59  53 SE6       30.09F

STATION/POSITION SKY/WX   TEMP    WIND        PRES    WAVE   SWELL
                          AIR SEA DIR/SP/G            HT/PER HT/PER
                          (F)     (DEG/KT/KT) (MB)    (FT/S) (FT/S)
30.1N   87.6W              75 75  110/ 14/ 17 1018.7F   5/ 7
29.2N   88.2W              77 78  120/ 17/ 19 1016.9F   5/ 6
28.8N   86.0W              75 75  110/ 16/ 17 1018.8F   4/ 7
PANAMA CITY BEAC           75 76  160/ 18/ 21 1019.4S
TOWER C                    73      70/  5/  5 1019.2F
28.5N   84.5W              75 75   90/  8/  8 1017.8F   3/ 5   3/ 5

$$
FLZ011-016>038-118-127-128-134-139-239-180000-
NORTH FLORIDA

CITY           SKY/WX    TMP DP  RH WIND       PRES   REMARKS
MARIANNA       FAIR      82  55  39 E8        30.07S
TALLAHASSEE    FAIR      83  58  42 S9        30.08S
LIVE OAK       MOSUNNY   81  54  39 E7G13     30.11S
CROSS CITY     FAIR      83  57  40 E6        30.09S
LAKE CITY      FAIR      77  55  47 E9        30.14R
GAINESVILLE    FAIR      79  57  46 E13       30.14S
WILLISTON      FAIR      80  59  47 E8        30.11S
PALATKA        FAIR      75  57  53 E13       30.14S
MAYPORT NAS    PTSUNNY   76  65  68 E8        30.16F
JACKSONVILLE   PTSUNNY   75  59  57 E10       30.16R
JAX NAS        PTSUNNY   76  60  57 SE15      30.16S
JAX CECIL      MOSUNNY   77  57  50 E13       30.15S
FERNANDINA BEA FAIR      76  67  75 E9        30.17S
ST AUGUSTINE   FAIR      76  64  66 E9        30.17S
PALM COAST     MOSUNNY   75  63  64 E9G16     30.15F

STATION/POSITION SKY/WX   TEMP    WIND        PRES    WAVE   SWELL
                          AIR SEA DIR/SP/G            HT/PER HT/PER
                          (F)     (DEG/KT/KT) (MB)    (FT/S) (FT/S)
SHELL POINT      NOT AVBL
KEATON BEACH               76     270/  4/  5 1019.1F
CEDAR KEY                  83        CALM     1018.7F
FERNANDINA                 81 74   60/  4/  7 1021.9F
30.7N   81.3W              74 73                N/A     3/ 9
MAYPORT                    74 74   70/  8/ 10 1021.9F
31.4N   80.9W              72 72   60/ 14/ 16 1021.9F   4/ 8   2/ 8
ST AUGUSTINE               74 75  100/  8/  8 1021.5F

$$
FLZ040-043>046-052-053-057-058-063-144-180000-
INTERIOR CENTRAL FLORIDA

CITY           SKY/WX    TMP DP  RH WIND       PRES   REMARKS
OCALA          FAIR      80  60  50 E14       30.11F
LEESBURG       FAIR      78  61  55 E16G23    30.13R
SANFORD        PTSUNNY   76  62  62 E14       30.13S
ORLANDO EXEC   PTSUNNY   79  60  52 E13       30.12S
ORLANDO INTL   FAIR      78  59  51 E14G22    30.12S
KISSIMMEE      FAIR      79  60  52 E17       30.12S
WINTER HAVEN   FAIR      80  59  48 E15G23    30.11S
LAKELAND       SUNNY     81  59  47 E15G21    30.09S
BARTOW         FAIR      81  59  47 E17       30.10S
SEBRING        FAIR      80  57  45 E15       30.10S
OKEECHOBEE     FAIR      79  59  50 E7G16     30.09S

$$
FLZ041-047-054-059-064-141-147-180000-
EAST CENTRAL FLORIDA

CITY           SKY/WX    TMP DP  RH WIND       PRES   REMARKS
ORMOND BEACH   MOSUNNY   75  63  64 E12G17    30.15S
DAYTONA BEACH  FAIR      77  61  57 E15G22    30.15S
DELAND         FAIR      77  62  58 E15       30.15S
NEW SMYRNA BEA MOSUNNY   77  63  61 E13       30.14S
JFK SPACE CTR  PTSUNNY   75  64  69 E5        30.12S
TITUSVILLE     MOSUNNY   82  59  44 SE10      30.14S
CAPE CANAVERAL FAIR      76  61  58 E12       30.12S
PATRICK AFB    FAIR      78  58  48 E12       30.11S
MELBOURNE      FAIR      78  61  55 E16       30.12S
VERO BEACH     FAIR      78  61  55 E12       30.12S
FT PIERCE      FAIR      78  58  49 E12       30.10F
STUART         MOSUNNY   79  75  89 E13G22    30.11F

STATION/POSITION SKY/WX   TEMP    WIND        PRES    WAVE   SWELL
                          AIR SEA DIR/SP/G            HT/PER HT/PER
                          (F)     (DEG/KT/KT) (MB)    (FT/S) (FT/S)
28.5N   80.2W                 78              1019.6S   5/ 8   3/ 8
28.9N   78.5W              75      80/ 16/ 21 1021.2S   6/ 9   5/ 9
TRIDENT PIER               77 80   80/  9/ 12 1021.3F
28.4N   80.5W                 77                N/A     3/ 4
27.5N   80.2W                 78                N/A     4/ 8

$$
FLZ050-056-061-142-242-148-248-149-249-151-251-155-255-
160-260-180000-
WEST CENTRAL FLORIDA

CITY           SKY/WX    TMP DP  RH WIND       PRES   REMARKS
CRYSTAL RIVER  FAIR      81  61  50 E12G20    30.09R
INVERNESS      FAIR      81  63  54 E10       30.11R
BROOKSVILLE    FAIR      82  61  48 E13       30.08S
CLEARWATER AIR FAIR      81  61  50 N7        30.05S
ST PETE CLEARW FAIR      86  62  44 E9        30.05S
TAMPA INTL     FAIR      85  61  44 E8G16     30.06S
TAMPA EXEC     FAIR      84  64  51 E12G18    30.07F
PLANT CITY     FAIR      82  63  51 E9G16     30.10S
MACDILL AFB    FAIR      83  61  47 E15       30.03S
PETER O KNIGHT CLOUDY    84  63  48 E16       30.06S
ST PETERSBURG  FAIR      83  67  58 E21       30.04S
SARASOTA       FAIR      87  56  34 SE12      30.02F
VENICE         PTSUNNY   84  66  54 W8        30.04S

STATION/POSITION SKY/WX   TEMP    WIND        PRES    WAVE   SWELL
                          AIR SEA DIR/SP/G            HT/PER HT/PER
                          (F)     (DEG/KT/KT) (MB)    (FT/S) (FT/S)
27.3N   84.3W                 77                N/A     3/ 6
CLEARWATER BEACH           79 83  320/ 10/ 11 1018.1F
MIDDLE TAMPA BAY           83      90/  9/ 12 1017.2F
VENICE                     81 82  280/ 12/ 13 1017.1F

$$
FLZ066-069-070-075>078-162-262-165-265-180000-
SOUTHWEST FLORIDA AND KEYS

CITY           SKY/WX    TMP DP  RH WIND       PRES   REMARKS
PUNTA GORDA    FAIR      84  60  44 E15       30.06S
FT MYERS       FAIR      86  56  35 E14       30.04R
SOUTHWEST INTL FAIR      83  55  38 E15       30.05R
NAPLES         FAIR      85  59  41 NE16      30.02S
MARCO ISLAND   CLOUDY    85  63  47 SE8       30.05R
IMMOKALEE      FAIR      84  57  39 E14       30.05S
MARATHON       FAIR      81  65  58 E15G23    30.03S
KEY WEST NAS   PTSUNNY   79  68  69 E20       30.02F
KEY WEST INTL  FAIR      80  68  66 E18       30.03S

STATION/POSITION SKY/WX   TEMP    WIND        PRES    WAVE   SWELL
                          AIR SEA DIR/SP/G            HT/PER HT/PER
                          (F)     (DEG/KT/KT) (MB)    (FT/S) (FT/S)
NAPLES                     87 82  120/  8/ 16 1017.4S
26.0N   85.6W              79 81  100/ 17/ 21 1015.5R   5/ 6
DRY TORTUGAS     NOT AVBL
SAND KEY                   79      90/ 19/ 22 1017.0F
SOMBRERO KEY               79      90/ 18/ 23 1017.4R
LONG KEY                   79                 1017.5R

$$
FLZ067-068-071>074-168-172>174-180000-
SOUTHEAST FLORIDA

CITY           SKY/WX    TMP DP  RH WIND       PRES   REMARKS
W PALM BEACH   PTSUNNY   81  61  50 E13       30.09S
BOCA RATON     MOSUNNY   81  61  50 E12G20    30.07F
FT LAUDER-EXEC FAIR      79  61  53 E14       30.07S
FT LAUDERDALE  PTSUNNY   78  62  57 E13       30.06S
POMPANO BEACH  PTSUNNY   78  60  53 E12       30.07S
PEMBROKE PINES FAIR      79  60  52 E13       30.09R
OPA LOCKA      FAIR      80  59  48 E15       30.08R
MIAMI          PTSUNNY   80  62  54 E12G21    30.07R
WEST KENDALL   FAIR      80  61  52 E17       30.06R
HOMESTEAD      FAIR      79  63  57 NE10      30.05R

STATION/POSITION SKY/WX   TEMP    WIND        PRES    WAVE   SWELL
                          AIR SEA DIR/SP/G            HT/PER HT/PER
                          (F)     (DEG/KT/KT) (MB)    (FT/S) (FT/S)
VIRGINIA KEY               79 84   40/ 10/ 17 1018.7R
LAKE WORTH                 78 81   70/ 12/ 14 1018.2S
FOWEY ROCKS                79 81   60/ 15/ 18 1018.1S
SETTLEMENT POINT           77      70/ 18/ 20 1018.9F

$$





USA.gov is the U.S. government's official web portal to all federal, state and local government web resources and services.